This is the latest recevied weather packets stored in our database for station/object IU7URP-17. If no packets are shown the sender has not sent any weather packets the latest 10 day(s).
| Time | Temp. | Humidity | Pressure | Rain* | Wind** | Luminosity | Snow |
|---|---|---|---|---|---|---|---|
| 1788136466 | 25.56° C | 94% | 1015.2 hPa | - | - | - | - |
| 1788135262 | 25.56° C | 93% | 1015.1 hPa | - | - | - | - |
| 1788134058 | 25.56° C | 93% | 1015.1 hPa | - | - | - | - |
| 1788131650 | 25.56° C | 93% | 1015.2 hPa | - | - | - | - |
| 1788130446 | 25.56° C | 92% | 1015.2 hPa | - | - | - | - |
| 1788129242 | 25.56° C | 92% | 1015.3 hPa | - | - | - | - |
| 1788128038 | 26.11° C | 92% | 1015.1 hPa | - | - | - | - |
| 1788126834 | 26.11° C | 91% | 1015.2 hPa | - | - | - | - |
| 1788125630 | 26.11° C | 91% | 1015.2 hPa | - | - | - | - |
| 1788124426 | 26.11° C | 90% | 1015.2 hPa | - | - | - | - |
| 1788123222 | 26.11° C | 90% | 1015.2 hPa | - | - | - | - |
| 1788120814 | 26.11° C | 89% | 1015 hPa | - | - | - | - |
| 1788118406 | 26.11° C | 88% | 1015.1 hPa | - | - | - | - |
| 1788114794 | 26.67° C | 84% | 1014.9 hPa | - | - | - | - |
| 1788113589 | 26.67° C | 83% | 1014.6 hPa | - | - | - | - |
| 1788112385 | 27.22° C | 79% | 1014.2 hPa | - | - | - | - |
| 1788111181 | 27.78° C | 78% | 1014 hPa | - | - | - | - |
| 1788108773 | 28.89° C | 73% | 1013.6 hPa | - | - | - | - |
| 1788107569 | 30° C | 69% | 1013.5 hPa | - | - | - | - |
| 1788106365 | 30.56° C | 66% | 1013.6 hPa | - | - | - | - |
| 1788103957 | 32.22° C | 57% | 1013.5 hPa | - | - | - | - |
| 1788102753 | 32.22° C | 58% | 1013.6 hPa | - | - | - | - |
| 1788101549 | 32.22° C | 59% | 1013.7 hPa | - | - | - | - |
| 1788100345 | 33.33° C | 59% | 1013.9 hPa | - | - | - | - |
| 1788099141 | 33.89° C | 58% | 1013.9 hPa | - | - | - | - |
* Rain since midnight (hover to see other rain measurements)
** Current wind speed in m/s (hover to see current wind gust speed)